| time (UTC) | temp F | wind direction | speed MPH | gust MPH | rain 1hr in | rain 24hr in | rain mn in | humidity % | barometer mb |
| 20260506211009 | 65 | 22 | 2.0 | 4.0 | 0.00 | 0.01 | 0.01 | 66 | 1013.8 |
| 20260506210508 | 65 | 19 | 1.0 | 8.0 | 0.00 | 0.01 | 0.01 | 66 | 1013.8 |
| 20260506210023 | 64 | 30 | 3.0 | 8.0 | 0.00 | 0.01 | 0.01 | 66 | 1013.8 |
| 20260506205507 | 64 | 330 | 1.0 | 6.0 | 0.00 | 0.01 | 0.01 | 67 | 1013.9 |
| 20260506205013 | 64 | 352 | 3.0 | 6.0 | 0.00 | 0.01 | 0.01 | 66 | 1013.9 |
| 20260506204528 | 64 | 81 | 0.0 | 5.0 | 0.00 | 0.01 | 0.01 | 67 | 1014.0 |
| 20260506204008 | 64 | 325 | 3.0 | 5.0 | 0.00 | 0.01 | 0.01 | 66 | 1013.9 |
| 20260506203515 | 64 | 5 | 2.0 | 5.0 | 0.00 | 0.01 | 0.01 | 67 | 1014.3 |
| 20260506203014 | 63 | 25 | 0.0 | 5.0 | 0.00 | 0.01 | 0.01 | 67 | 1014.2 |
| 20260506202505 | 63 | 15 | 2.0 | 5.0 | 0.00 | 0.01 | 0.01 | 68 | 1014.0 |
| 20260506202003 | 63 | 5 | 2.0 | 7.0 | 0.00 | 0.01 | 0.01 | 68 | 1014.0 |
| 20260506201517 | 62 | 341 | 2.0 | 7.0 | 0.00 | 0.01 | 0.01 | 68 | 1014.4 |
| 20260506201005 | 62 | 35 | 1.0 | 7.0 | 0.00 | 0.01 | 0.01 | 69 | 1014.3 |
| 20260506200507 | 62 | 20 | 2.0 | 5.0 | 0.00 | 0.01 | 0.01 | 68 | 1014.5 |
| 20260506200021 | 62 | 348 | 2.0 | 5.0 | 0.00 | 0.01 | 0.01 | 69 | 1014.7 |
| 20260506195508 | 61 | 360 | 0.0 | 5.0 | 0.00 | 0.01 | 0.01 | 70 | 1014.6 |
| 20260506195011 | 61 | 323 | 3.0 | 5.0 | 0.00 | 0.01 | 0.01 | 69 | 1014.6 |
| 20260506194532 | 61 | 352 | 3.0 | 8.0 | 0.00 | 0.01 | 0.01 | 69 | 1014.8 |
| 20260506194013 | 61 | 315 | 2.0 | 8.0 | 0.00 | 0.01 | 0.01 | 69 | 1014.8 |
| 20260506193508 | 61 | 5 | 3.0 | 7.0 | 0.00 | 0.01 | 0.01 | 69 | 1014.7 |
| 20260506193027 | 62 | 13 | 2.0 | 6.0 | 0.00 | 0.01 | 0.01 | 69 | 1014.7 |
| 20260506192510 | 62 | 47 | 2.0 | 6.0 | 0.00 | 0.01 | 0.01 | 70 | 1014.9 |
| 20260506192004 | 62 | 24 | 1.0 | 6.0 | 0.00 | 0.01 | 0.01 | 69 | 1015.0 |
| 20260506191515 | 61 | 286 | 1.0 | 6.0 | 0.00 | 0.01 | 0.01 | 72 | 1015.0 |
| 20260506191004 | 60 | 288 | 1.0 | 6.0 | 0.00 | 0.01 | 0.01 | 73 | 1015.1 |
| 20260506190505 | 60 | 183 | 1.0 | 5.0 | 0.00 | 0.01 | 0.01 | 72 | 1015.1 |
| 20260506190021 | 60 | 338 | 1.0 | 5.0 | 0.00 | 0.01 | 0.01 | 72 | 1015.3 |
| 20260506185507 | 60 | 5 | 2.0 | 5.0 | 0.00 | 0.01 | 0.01 | 72 | 1015.5 |
| 20260506185009 | 60 | 16 | 0.0 | 6.0 | 0.00 | 0.01 | 0.01 | 73 | 1015.3 |
| 20260506184528 | 59 | 350 | 2.0 | 6.0 | 0.00 | 0.01 | 0.01 | 72 | 1015.4 |
| 20260506184007 | 59 | 308 | 2.0 | 8.0 | 0.00 | 0.01 | 0.01 | 73 | 1015.3 |
| 20260506183508 | 59 | 352 | 3.0 | 10.0 | 0.00 | 0.01 | 0.01 | 72 | 1015.2 |
| 20260506183029 | 59 | 294 | 4.0 | 12.0 | 0.00 | 0.01 | 0.01 | 73 | 1015.0 |
| 20260506182508 | 59 | 348 | 3.0 | 12.0 | 0.00 | 0.01 | 0.01 | 74 | 1014.9 |
| 20260506182019 | 58 | 297 | 5.0 | 11.0 | 0.00 | 0.01 | 0.01 | 74 | 1014.9 |
| 20260506181517 | 58 | 306 | 3.0 | 10.0 | 0.00 | 0.01 | 0.01 | 74 | 1014.7 |
| 20260506181004 | 58 | 360 | 3.0 | 10.0 | 0.00 | 0.01 | 0.01 | 75 | 1014.9 |
| 20260506180504 | 57 | 61 | 2.0 | 10.0 | 0.00 | 0.01 | 0.01 | 76 | 1014.9 |
| 20260506180014 | 57 | 15 | 4.0 | 10.0 | 0.00 | 0.01 | 0.01 | 76 | 1014.9 |
| 20260506175505 | 57 | 300 | 3.0 | 9.0 | 0.00 | 0.01 | 0.01 | 78 | 1014.7 |
| 20260506175000 | 56 | 36 | 4.0 | 9.0 | 0.00 | 0.01 | 0.01 | 79 | 1014.8 |
| 20260506174503 | 55 | 344 | 3.0 | 9.0 | 0.00 | 0.01 | 0.01 | 79 | 1014.9 |
| 20260506174000 | 55 | 5 | 3.0 | 9.0 | 0.00 | 0.01 | 0.01 | 79 | 1015.2 |
| 20260506173504 | 55 | 12 | 2.0 | 9.0 | 0.00 | 0.01 | 0.01 | 79 | 1015.3 |
| 20260506173006 | 55 | 307 | 2.0 | 7.0 | 0.00 | 0.01 | 0.01 | 80 | 1015.3 |
| 20260506172503 | 54 | 350 | 2.0 | 8.0 | 0.00 | 0.01 | 0.01 | 80 | 1015.2 |
| 20260506172004 | 54 | 360 | 3.0 | 10.0 | 0.00 | 0.01 | 0.01 | 81 | 1015.1 |
| 20260506171511 | 54 | 288 | 6.0 | 10.0 | 0.00 | 0.01 | 0.01 | 81 | 1015.2 |
| 20260506171006 | 54 | 9 | 3.0 | 9.0 | 0.00 | 0.01 | 0.01 | 82 | 1015.1 |
| 20260506170502 | 53 | 317 | 4.0 | 9.0 | 0.00 | 0.01 | 0.01 | 82 | 1015.1 |
| 20260506170017 | 53 | 332 | 3.0 | 9.0 | 0.00 | 0.01 | 0.01 | 82 | 1015.0 |
| 20260506165503 | 53 | 348 | 3.0 | 11.0 | 0.00 | 0.01 | 0.01 | 83 | 1015.0 |
| 20260506165006 | 53 | 15 | 4.0 | 11.0 | 0.00 | 0.01 | 0.01 | 83 | 1014.9 |
| 20260506164522 | 53 | 20 | 4.0 | 10.0 | 0.00 | 0.01 | 0.01 | 84 | 1014.6 |
| 20260506164002 | 53 | 317 | 4.0 | 9.0 | 0.00 | 0.01 | 0.01 | 84 | 1014.9 |
| 20260506163459 | 52 | 336 | 5.0 | 9.0 | 0.00 | 0.01 | 0.01 | 84 | 1014.9 |
| 20260506163005 | 52 | 325 | 2.0 | 8.0 | 0.00 | 0.01 | 0.01 | 84 | 1014.9 |
| 20260506162500 | 52 | 348 | 3.0 | 12.0 | 0.00 | 0.01 | 0.01 | 84 | 1015.1 |
| 20260506162004 | 52 | 336 | 3.0 | 12.0 | 0.00 | 0.01 | 0.01 | 85 | 1015.2 |
| 20260506161507 | 52 | 28 | 3.0 | 12.0 | 0.00 | 0.01 | 0.01 | 85 | 1015.0 |
| 20260506161003 | 52 | 360 | 4.0 | 12.0 | 0.00 | 0.01 | 0.01 | 85 | 1014.7 |
| 20260506160505 | 52 | 5 | 6.0 | 10.0 | 0.00 | 0.01 | 0.01 | 85 | 1014.5 |
| 20260506160010 | 52 | 28 | 3.0 | 10.0 | 0.00 | 0.01 | 0.01 | 86 | 1014.7 |
| 20260506155503 | 52 | 352 | 2.0 | 10.0 | 0.00 | 0.01 | 0.01 | 86 | 1014.9 |
| 20260506155009 | 52 | 360 | 2.0 | 8.0 | 0.00 | 0.01 | 0.01 | 86 | 1014.7 |
| 20260506154524 | 52 | 347 | 4.0 | 12.0 | 0.01 | 0.01 | 0.01 | 86 | 1014.4 |
| 20260506154007 | 52 | 13 | 5.0 | 12.0 | 0.01 | 0.01 | 0.01 | 87 | 1014.2 |
| 20260506153507 | 52 | 329 | 5.0 | 13.0 | 0.01 | 0.01 | 0.01 | 87 | 1014.4 |
| 20260506153022 | 52 | 343 | 4.0 | 13.0 | 0.01 | 0.01 | 0.01 | 87 | 1014.4 |
| 20260506152501 | 52 | 360 | 5.0 | 11.0 | 0.01 | 0.01 | 0.01 | 87 | 1014.5 |
| 20260506152001 | 52 | 12 | 4.0 | 11.0 | 0.01 | 0.01 | 0.01 | 87 | 1014.6 |
| 20260506151504 | 52 | 352 | 4.0 | 10.0 | 0.01 | 0.01 | 0.01 | 88 | 1014.9 |
| 20260506151002 | 52 | 26 | 5.0 | 10.0 | 0.01 | 0.01 | 0.01 | 88 | 1014.6 |
| 20260506150503 | 51 | 347 | 4.0 | 9.0 | 0.01 | 0.01 | 0.01 | 88 | 1014.9 |
| 20260506150012 | 51 | 5 | 4.0 | 8.0 | 0.01 | 0.01 | 0.01 | 87 | 1014.9 |
| 20260506145505 | 51 | 17 | 4.0 | 8.0 | 0.01 | 0.01 | 0.01 | 87 | 1015.2 |
| 20260506145005 | 51 | 9 | 4.0 | 8.0 | 0.01 | 0.01 | 0.01 | 87 | 1015.3 |
| 20260506144516 | 51 | 5 | 4.0 | 8.0 | 0.00 | 0.00 | 0.00 | 86 | 1015.7 |
| 20260506144013 | 51 | 360 | 3.0 | 5.0 | 0.00 | 0.00 | 0.00 | 86 | 1016.3 |
| 20260506143507 | 51 | 338 | 1.0 | 4.0 | 0.00 | 0.00 | 0.00 | 86 | 1016.7 |
| 20260506143021 | 51 | 282 | 1.0 | 4.0 | 0.00 | 0.00 | 0.00 | 86 | 1016.6 |
| 20260506142506 | 51 | 312 | 0.0 | 8.0 | 0.00 | 0.00 | 0.00 | 86 | 1016.5 |
| 20260506142011 | 51 | 283 | 0.0 | 8.0 | 0.00 | 0.00 | 0.00 | 86 | 1016.7 |
| 20260506141504 | 51 | 286 | 3.0 | 9.0 | 0.00 | 0.00 | 0.00 | 86 | 1016.0 |
| 20260506141003 | 51 | 319 | 3.0 | 9.0 | 0.00 | 0.00 | 0.00 | 85 | 1014.7 |
| 20260506140501 | 51 | 338 | 3.0 | 10.0 | 0.00 | 0.00 | 0.00 | 85 | 1014.4 |
| 20260506140008 | 51 | 350 | 4.0 | 10.0 | 0.00 | 0.00 | 0.00 | 84 | 1014.0 |
| 20260506135504 | 51 | 360 | 4.0 | 11.0 | 0.00 | 0.00 | 0.00 | 84 | 1014.8 |
| 20260506135007 | 51 | 327 | 4.0 | 12.0 | 0.00 | 0.00 | 0.00 | 84 | 1014.7 |
| 20260506134512 | 51 | 13 | 4.0 | 9.0 | 0.00 | 0.00 | 0.00 | 84 | 1014.6 |
| 20260506134004 | 51 | 40 | 2.0 | 8.0 | 0.00 | 0.00 | 0.00 | 84 | 1015.4 |
| 20260506133507 | 51 | 334 | 4.0 | 9.0 | 0.00 | 0.00 | 0.00 | 83 | 1015.5 |
| 20260506133020 | 51 | 297 | 2.0 | 9.0 | 0.00 | 0.00 | 0.00 | 84 | 1015.3 |
| 20260506132509 | 51 | 328 | 3.0 | 8.0 | 0.00 | 0.00 | 0.00 | 83 | 1015.4 |
| 20260506132009 | 51 | 270 | 4.0 | 11.0 | 0.00 | 0.00 | 0.00 | 83 | 1015.2 |
| 20260506131540 | 51 | 350 | 3.0 | 11.0 | 0.00 | 0.00 | 0.00 | 83 | 1014.5 |
| 20260506131007 | 51 | 5 | 4.0 | 10.0 | 0.00 | 0.00 | 0.00 | 83 | 1014.2 |
| 20260506130509 | 51 | 360 | 4.0 | 13.0 | 0.00 | 0.00 | 0.00 | 83 | 1014.1 |
| 20260506130005 | 51 | 5 | 6.0 | 13.0 | 0.00 | 0.00 | 0.00 | 83 | 1014.1 |
| 20260506125505 | 51 | 360 | 7.0 | 13.0 | 0.00 | 0.00 | 0.00 | 83 | 1013.7 |
| 20260506125003 | 51 | 24 | 5.0 | 13.0 | 0.00 | 0.00 | 0.00 | 83 | 1013.7 |
| 20260506124509 | 51 | 14 | 3.0 | 13.0 | 0.00 | 0.00 | 0.00 | 82 | 1013.7 |
| 20260506124003 | 51 | 12 | 7.0 | 13.0 | 0.00 | 0.00 | 0.00 | 82 | 1013.3 |
| 20260506123503 | 51 | 317 | 6.0 | 13.0 | 0.00 | 0.00 | 0.00 | 82 | 1013.3 |
| 20260506123014 | 51 | 5 | 4.0 | 13.0 | 0.00 | 0.00 | 0.00 | 82 | 1013.2 |
| 20260506122505 | 51 | 336 | 6.0 | 13.0 | 0.00 | 0.00 | 0.00 | 82 | 1013.2 |
| 20260506122007 | 52 | 17 | 5.0 | 11.0 | 0.00 | 0.00 | 0.00 | 81 | 1013.4 |
| 20260506121522 | 52 | 14 | 3.0 | 9.0 | 0.00 | 0.00 | 0.00 | 81 | 1013.5 |
| 20260506121011 | 52 | 10 | 5.0 | 10.0 | 0.00 | 0.00 | 0.00 | 80 | 1013.3 |
| 20260506120509 | 52 | 20 | 3.0 | 10.0 | 0.00 | 0.00 | 0.00 | 80 | 1013.4 |
| 20260506120024 | 52 | 5 | 3.0 | 13.0 | 0.00 | 0.00 | 0.00 | 80 | 1013.1 |
| 20260506115507 | 52 | 331 | 6.0 | 13.0 | 0.00 | 0.00 | 0.00 | 80 | 1013.3 |
| 20260506115003 | 52 | 352 | 4.0 | 10.0 | 0.00 | 0.00 | 0.00 | 80 | 1013.3 |
| 20260506114508 | 52 | 338 | 4.0 | 11.0 | 0.00 | 0.00 | 0.00 | 80 | 1013.2 |
| 20260506114003 | 52 | 336 | 5.0 | 13.0 | 0.00 | 0.00 | 0.00 | 80 | 1013.4 |
| 20260506113504 | 52 | 327 | 5.0 | 13.0 | 0.00 | 0.00 | 0.00 | 80 | 1013.2 |
| 20260506113015 | 53 | 360 | 4.0 | 10.0 | 0.00 | 0.00 | 0.00 | 80 | 1013.1 |
| 20260506112508 | 53 | 298 | 5.0 | 9.0 | 0.00 | 0.00 | 0.00 | 80 | 1012.9 |
| 20260506112006 | 53 | 9 | 4.0 | 7.0 | 0.00 | 0.00 | 0.00 | 80 | 1012.7 |
| 20260506111521 | 53 | 352 | 2.0 | 10.0 | 0.00 | 0.00 | 0.00 | 80 | 1012.8 |
| 20260506111007 | 53 | 311 | 2.0 | 10.0 | 0.00 | 0.00 | 0.00 | 80 | 1012.6 |
| 20260506110508 | 53 | 331 | 2.0 | 10.0 | 0.00 | 0.00 | 0.00 | 79 | 1012.5 |
| 20260506110022 | 54 | 323 | 4.0 | 11.0 | 0.00 | 0.00 | 0.00 | 79 | 1012.3 |
| 20260506105507 | 54 | 297 | 4.0 | 10.0 | 0.00 | 0.00 | 0.00 | 79 | 1012.3 |
| 20260506105007 | 54 | 318 | 2.0 | 10.0 | 0.00 | 0.00 | 0.00 | 78 | 1012.1 |
| 20260506104526 | 55 | 360 | 3.0 | 9.0 | 0.00 | 0.00 | 0.00 | 78 | 1012.0 |
| 20260506104006 | 55 | 348 | 4.0 | 11.0 | 0.00 | 0.00 | 0.00 | 78 | 1011.8 |
| 20260506103506 | 55 | 35 | 5.0 | 10.0 | 0.00 | 0.00 | 0.00 | 77 | 1011.8 |
| 20260506103016 | 56 | 339 | 4.0 | 8.0 | 0.00 | 0.00 | 0.00 | 78 | 1011.7 |
| 20260506102505 | 56 | 290 | 2.0 | 10.0 | 0.00 | 0.00 | 0.00 | 78 | 1011.7 |
| 20260506102006 | 56 | 352 | 4.0 | 10.0 | 0.00 | 0.00 | 0.00 | 78 | 1011.7 |
| 20260506101518 | 56 | 13 | 3.0 | 9.0 | 0.00 | 0.00 | 0.00 | 78 | 1011.5 |
| 20260506101003 | 56 | 360 | 3.0 | 6.0 | 0.00 | 0.00 | 0.00 | 78 | 1011.4 |
| 20260506100508 | 56 | 348 | 1.0 | 6.0 | 0.00 | 0.00 | 0.00 | 78 | 1011.4 |
| 20260506100025 | 56 | 325 | 3.0 | 9.0 | 0.00 | 0.00 | 0.00 | 78 | 1011.2 |
| 20260506095508 | 56 | 13 | 3.0 | 9.0 | 0.00 | 0.00 | 0.00 | 78 | 1011.1 |
| 20260506095008 | 56 | 360 | 3.0 | 7.0 | 0.00 | 0.00 | 0.00 | 77 | 1011.2 |
| 20260506094535 | 56 | 9 | 4.0 | 7.0 | 0.00 | 0.00 | 0.00 | 77 | 1011.0 |
| 20260506094009 | 56 | 298 | 4.0 | 6.0 | 0.00 | 0.00 | 0.00 | 77 | 1010.8 |
| 20260506093511 | 56 | 340 | 2.0 | 7.0 | 0.00 | 0.00 | 0.00 | 77 | 1010.7 |
| 20260506093033 | 56 | 14 | 4.0 | 7.0 | 0.00 | 0.00 | 0.00 | 76 | 1010.7 |
| 20260506092505 | 57 | 11 | 3.0 | 8.0 | 0.00 | 0.00 | 0.00 | 77 | 1010.8 |
| 20260506092009 | 57 | 315 | 2.0 | 8.0 | 0.00 | 0.00 | 0.00 | 77 | 1010.9 |
| 20260506091514 | 57 | 338 | 3.0 | 8.0 | 0.00 | 0.00 | 0.00 | 77 | 1010.9 |
| 20260506091006 | 57 | 360 | 2.0 | 8.0 | 0.00 | 0.00 | 0.00 | 78 | 1011.0 |
| 20260506090505 | 57 | 360 | 2.0 | 8.0 | 0.00 | 0.00 | 0.00 | 78 | 1010.9 |
| 20260506090021 | 57 | 16 | 2.0 | 5.0 | 0.00 | 0.00 | 0.00 | 78 | 1010.8 |
| 20260506085510 | 57 | 21 | 1.0 | 6.0 | 0.00 | 0.00 | 0.00 | 78 | 1010.7 |
| 20260506085006 | 57 | 350 | 2.0 | 6.0 | 0.00 | 0.00 | 0.00 | 78 | 1010.8 |
| 20260506084525 | 57 | 28 | 3.0 | 5.0 | 0.00 | 0.00 | 0.00 | 78 | 1010.8 |
| 20260506084007 | 57 | 22 | 1.0 | 5.0 | 0.00 | 0.00 | 0.00 | 78 | 1010.8 |
| 20260506083504 | 57 | 332 | 2.0 | 6.0 | 0.00 | 0.00 | 0.00 | 78 | 1010.7 |
| 20260506083009 | 57 | 28 | 2.0 | 7.0 | 0.00 | 0.00 | 0.00 | 78 | 1010.6 |
| 20260506082503 | 57 | 360 | 4.0 | 8.0 | 0.00 | 0.00 | 0.00 | 78 | 1010.5 |
| 20260506082003 | 57 | 335 | 5.0 | 8.0 | 0.00 | 0.00 | 0.00 | 78 | 1010.6 |
| 20260506081513 | 57 | 5 | 2.0 | 8.0 | 0.00 | 0.00 | 0.00 | 79 | 1010.5 |
| 20260506081004 | 57 | 298 | 2.0 | 6.0 | 0.00 | 0.00 | 0.00 | 79 | 1010.4 |
| 20260506080503 | 57 | 5 | 4.0 | 11.0 | 0.00 | 0.00 | 0.00 | 79 | 1010.5 |
| 20260506073508 | 58 | 11 | 3.0 | 8.0 | 0.00 | 0.00 | 0.00 | 80 | 1010.4 |
| 20260506073008 | 58 | 331 | 3.0 | 8.0 | 0.00 | 0.00 | 0.00 | 80 | 1010.6 |
| 20260506072504 | 58 | 340 | 1.0 | 6.0 | 0.00 | 0.00 | 0.00 | 80 | 1010.7 |
| 20260506072003 | 58 | 18 | 3.0 | 6.0 | 0.00 | 0.00 | 0.00 | 80 | 1010.6 |
| 20260506071513 | 58 | 12 | 2.0 | 5.0 | 0.00 | 0.00 | 0.00 | 80 | 1010.6 |
| 20260506071007 | 58 | 350 | 3.0 | 8.0 | 0.00 | 0.00 | 0.00 | 80 | 1010.6 |
| 20260506070507 | 58 | 352 | 2.0 | 8.0 | 0.00 | 0.00 | 0.00 | 80 | 1010.5 |
| 20260506062515 | 59 | 52 | 3.0 | 7.0 | 0.00 | 0.00 | 0.00 | 78 | 1009.5 |
| 20260506062011 | 59 | 360 | 4.0 | 8.0 | 0.00 | 0.00 | 0.00 | 78 | 1009.7 |
| 20260506061506 | 59 | 9 | 3.0 | 9.0 | 0.00 | 0.00 | 0.00 | 78 | 1009.7 |
| 20260506061002 | 59 | 329 | 4.0 | 10.0 | 0.00 | 0.00 | 0.00 | 78 | 1009.9 |
| 20260506060505 | 59 | 338 | 4.0 | 10.0 | 0.00 | 0.00 | 0.00 | 77 | 1010.0 |
| 20260506051015 | 60 | 57 | 4.0 | 12.0 | 0.00 | 0.00 | 0.00 | 75 | 1010.2 |
| 20260506050505 | 60 | 24 | 4.0 | 12.0 | 0.00 | 0.00 | 0.00 | 75 | 1010.1 |
| 20260506045007 | 61 | 331 | 3.0 | 9.0 | 0.00 | 0.00 | 0.00 | 75 | 1010.2 |
| 20260506044516 | 61 | 42 | 2.0 | 10.0 | 0.00 | 0.00 | 0.00 | 74 | 1010.3 |
| 20260506044004 | 61 | 350 | 4.0 | 10.0 | 0.00 | 0.00 | 0.00 | 74 | 1010.2 |
| 20260506043506 | 61 | 11 | 5.0 | 9.0 | 0.00 | 0.00 | 0.00 | 74 | 1010.0 |
| 20260506043021 | 61 | 309 | 4.0 | 9.0 | 0.00 | 0.00 | 0.00 | 74 | 1010.0 |
| 20260506042505 | 62 | 315 | 3.0 | 9.0 | 0.00 | 0.00 | 0.00 | 74 | 1009.9 |
| 20260506042012 | 62 | 13 | 5.0 | 9.0 | 0.00 | 0.00 | 0.00 | 73 | 1009.9 |
| 20260506041526 | 62 | 360 | 2.0 | 9.0 | 0.00 | 0.00 | 0.00 | 73 | 1010.0 |
| 20260506041008 | 62 | 11 | 3.0 | 9.0 | 0.00 | 0.00 | 0.00 | 73 | 1010.0 |
| 20260506040508 | 63 | 11 | 4.0 | 9.0 | 0.00 | 0.00 | 0.00 | 73 | 1010.0 |
| 20260506040027 | 63 | 318 | 3.0 | 10.0 | 0.00 | 0.00 | 0.00 | 73 | 1010.1 |
| 20260506035514 | 63 | 352 | 4.0 | 10.0 | 0.00 | 0.00 | 0.00 | 72 | 1009.9 |
| 20260506035003 | 63 | 327 | 3.0 | 9.0 | 0.00 | 0.00 | 0.00 | 72 | 1010.1 |
| 20260506034513 | 63 | 311 | 3.0 | 11.0 | 0.00 | 0.00 | 0.00 | 72 | 1009.9 |
| 20260506034004 | 63 | 336 | 3.0 | 11.0 | 0.00 | 0.00 | 0.00 | 72 | 1009.9 |
| 20260506033506 | 64 | 320 | 5.0 | 11.0 | 0.00 | 0.00 | 0.00 | 72 | 1009.9 |
| 20260506033018 | 64 | 316 | 3.0 | 10.0 | 0.00 | 0.00 | 0.00 | 72 | 1009.8 |
| 20260506032505 | 64 | 325 | 5.0 | 11.0 | 0.00 | 0.00 | 0.00 | 72 | 1009.4 |
| 20260506032012 | 64 | 340 | 2.0 | 11.0 | 0.00 | 0.00 | 0.00 | 72 | 1009.2 |
| 20260506031522 | 64 | 360 | 5.0 | 11.0 | 0.00 | 0.00 | 0.00 | 72 | 1009.0 |
| 20260506031010 | 65 | 13 | 2.0 | 10.0 | 0.00 | 0.00 | 0.00 | 72 | 1009.0 |
| 20260506030506 | 65 | 342 | 4.0 | 10.0 | 0.00 | 0.00 | 0.00 | 71 | 1008.9 |
| 20260506030031 | 65 | 325 | 2.0 | 9.0 | 0.00 | 0.00 | 0.00 | 72 | 1008.8 |
| 20260506025507 | 65 | 352 | 4.0 | 11.0 | 0.00 | 0.00 | 0.00 | 72 | 1008.7 |
| 20260506025011 | 65 | 352 | 2.0 | 12.0 | 0.00 | 0.00 | 0.00 | 72 | 1008.8 |
| 20260506024541 | 65 | 79 | 4.0 | 12.0 | 0.00 | 0.00 | 0.00 | 71 | 1008.6 |
| 20260506024005 | 66 | 15 | 5.0 | 11.0 | 0.00 | 0.00 | 0.00 | 71 | 1008.3 |
| 20260506023506 | 66 | 360 | 5.0 | 10.0 | 0.00 | 0.00 | 0.00 | 71 | 1008.2 |
| 20260506023017 | 66 | 13 | 2.0 | 9.0 | 0.00 | 0.00 | 0.00 | 70 | 1007.9 |
| 20260506022504 | 66 | 340 | 4.0 | 10.0 | 0.00 | 0.00 | 0.00 | 70 | 1008.0 |
| 20260506022009 | 66 | 15 | 4.0 | 10.0 | 0.00 | 0.00 | 0.00 | 70 | 1007.9 |
| 20260506021522 | 66 | 5 | 5.0 | 9.0 | 0.00 | 0.00 | 0.00 | 69 | 1007.6 |
| 20260506021006 | 66 | 350 | 4.0 | 11.0 | 0.00 | 0.00 | 0.00 | 69 | 1007.5 |
| 20260506020508 | 67 | 5 | 4.0 | 10.0 | 0.00 | 0.00 | 0.00 | 69 | 1007.6 |
| 20260506020026 | 67 | 347 | 3.0 | 9.0 | 0.00 | 0.00 | 0.00 | 68 | 1007.7 |
| 20260506015507 | 67 | 345 | 5.0 | 11.0 | 0.00 | 0.00 | 0.00 | 68 | 1007.7 |
| 20260506015014 | 67 | 16 | 4.0 | 11.0 | 0.00 | 0.00 | 0.00 | 67 | 1007.5 |
| 20260506014506 | 68 | 360 | 3.0 | 9.0 | 0.00 | 0.00 | 0.00 | 68 | 1007.6 |
| 20260506014004 | 68 | 360 | 3.0 | 10.0 | 0.00 | 0.00 | 0.00 | 68 | 1007.4 |
| 20260506013504 | 68 | 5 | 3.0 | 11.0 | 0.00 | 0.00 | 0.00 | 68 | 1007.1 |
| 20260506013013 | 68 | 348 | 4.0 | 11.0 | 0.00 | 0.00 | 0.00 | 67 | 1007.1 |
| 20260506012504 | 69 | 304 | 2.0 | 10.0 | 0.00 | 0.00 | 0.00 | 67 | 1006.9 |
| 20260506012006 | 69 | 227 | 3.0 | 10.0 | 0.00 | 0.00 | 0.00 | 67 | 1006.9 |
| 20260506011518 | 70 | 360 | 4.0 | 11.0 | 0.00 | 0.00 | 0.00 | 67 | 1006.7 |
| 20260506011008 | 70 | 28 | 4.0 | 9.0 | 0.00 | 0.00 | 0.00 | 66 | 1006.6 |
| 20260506010507 | 70 | 331 | 4.0 | 11.0 | 0.00 | 0.00 | 0.00 | 66 | 1006.5 |
| 20260506010027 | 71 | 48 | 6.0 | 11.0 | 0.00 | 0.00 | 0.00 | 65 | 1006.3 |
| 20260506005506 | 71 | 360 | 5.0 | 10.0 | 0.00 | 0.00 | 0.00 | 65 | 1006.3 |
| 20260506005008 | 71 | 17 | 2.0 | 9.0 | 0.00 | 0.00 | 0.00 | 65 | 1005.9 |
| 20260506004507 | 71 | 341 | 4.0 | 9.0 | 0.00 | 0.00 | 0.00 | 64 | 1006.0 |
| 20260506004004 | 71 | 360 | 4.0 | 9.0 | 0.00 | 0.00 | 0.00 | 64 | 1006.0 |
| 20260506003504 | 72 | 340 | 4.0 | 12.0 | 0.00 | 0.00 | 0.00 | 63 | 1006.0 |
| 20260506003015 | 72 | 310 | 3.0 | 12.0 | 0.00 | 0.00 | 0.00 | 63 | 1006.0 |
| 20260506002504 | 72 | 16 | 6.0 | 12.0 | 0.00 | 0.00 | 0.00 | 62 | 1005.8 |
| 20260506002007 | 72 | 20 | 5.0 | 12.0 | 0.00 | 0.00 | 0.00 | 62 | 1005.9 |
| 20260506001518 | 73 | 323 | 4.0 | 10.0 | 0.00 | 0.00 | 0.00 | 62 | 1005.6 |
| 20260506001005 | 73 | 346 | 3.0 | 11.0 | 0.00 | 0.00 | 0.00 | 62 | 1005.7 |
| 20260506000508 | 73 | 319 | 4.0 | 11.0 | 0.00 | 0.00 | 0.00 | 61 | 1005.8 |
| 20260506000022 | 74 | 5 | 4.0 | 11.0 | 0.00 | 0.00 | 0.00 | 62 | 1005.7 |
| 20260505235507 | 74 | 317 | 3.0 | 11.0 | 0.00 | 0.00 | 0.00 | 62 | 1005.6 |
| 20260505235007 | 75 | 19 | 4.0 | 12.0 | 0.00 | 0.00 | 0.00 | 61 | 1005.7 |
| 20260505234529 | 75 | 352 | 4.0 | 12.0 | 0.00 | 0.00 | 0.00 | 60 | 1005.4 |
| 20260505234009 | 75 | 5 | 3.0 | 13.0 | 0.00 | 0.00 | 0.00 | 60 | 1005.6 |
| 20260505233504 | 76 | 14 | 7.0 | 16.0 | 0.00 | 0.00 | 0.00 | 60 | 1005.3 |
| 20260505233009 | 77 | 5 | 6.0 | 16.0 | 0.00 | 0.00 | 0.00 | 59 | 1005.4 |
| 20260505232504 | 77 | 344 | 6.0 | 15.0 | 0.00 | 0.00 | 0.00 | 58 | 1005.4 |
| 20260505232005 | 78 | 313 | 9.0 | 14.0 | 0.00 | 0.00 | 0.00 | 56 | 1005.2 |
| 20260505231515 | 80 | 296 | 7.0 | 13.0 | 0.00 | 0.00 | 0.00 | 56 | 1004.9 |
| 20260505231006 | 80 | 13 | 6.0 | 13.0 | 0.00 | 0.00 | 0.00 | 56 | 1004.9 |
| 20260505230505 | 80 | 349 | 5.0 | 11.0 | 0.00 | 0.00 | 0.00 | 55 | 1004.9 |
| 20260505230043 | 80 | 11 | 6.0 | 12.0 | 0.00 | 0.00 | 0.00 | 55 | 1005.0 |
| 20260505225511 | 81 | 9 | 6.0 | 12.0 | 0.00 | 0.00 | 0.00 | 54 | 1004.7 |
| 20260505225006 | 82 | 13 | 7.0 | 13.0 | 0.00 | 0.00 | 0.00 | 54 | 1004.8 |
| 20260505224526 | 83 | 313 | 5.0 | 13.0 | 0.00 | 0.00 | 0.00 | 55 | 1004.9 |
| 20260505224011 | 84 | 273 | 4.0 | 12.0 | 0.00 | 0.00 | 0.00 | 54 | 1004.8 |
| 20260505223512 | 84 | 352 | 5.0 | 12.0 | 0.00 | 0.00 | 0.00 | 49 | 1004.6 |
| 20260505223025 | 85 | 5 | 7.0 | 12.0 | 0.00 | 0.00 | 0.00 | 49 | 1004.5 |
| 20260505222504 | 86 | 44 | 4.0 | 10.0 | 0.00 | 0.00 | 0.00 | 48 | 1004.3 |
| 20260505222005 | 87 | 10 | 4.0 | 10.0 | 0.00 | 0.00 | 0.00 | 45 | 1004.4 |
| 20260505221512 | 87 | 344 | 4.0 | 9.0 | 0.00 | 0.00 | 0.00 | 45 | 1004.4 |
| 20260505221010 | 87 | 340 | 3.0 | 9.0 | 0.00 | 0.00 | 0.00 | 45 | 1004.3 |
| 20260505220506 | 87 | 352 | 5.0 | 10.0 | 0.00 | 0.00 | 0.00 | 43 | 1004.3 |
| 20260505220029 | 87 | 15 | 3.0 | 10.0 | 0.00 | 0.00 | 0.00 | 45 | 1004.3 |
| 20260505215507 | 87 | 360 | 3.0 | 9.0 | 0.00 | 0.00 | 0.00 | 43 | 1004.4 |
| 20260505215007 | 87 | 352 | 2.0 | 9.0 | 0.00 | 0.00 | 0.00 | 45 | 1004.4 |
| 20260505214523 | 87 | 347 | 3.0 | 9.0 | 0.00 | 0.00 | 0.00 | 45 | 1004.3 |
| 20260505214012 | 87 | 17 | 3.0 | 8.0 | 0.00 | 0.00 | 0.00 | 44 | 1004.3 |
| 20260505213510 | 88 | 347 | 3.0 | 8.0 | 0.00 | 0.00 | 0.00 | 44 | 1004.3 |
| 20260505213028 | 90 | 19 | 2.0 | 7.0 | 0.00 | 0.00 | 0.00 | 44 | 1004.4 |
| 20260505212510 | 90 | 246 | 1.0 | 4.0 | 0.00 | 0.00 | 0.00 | 45 | 1004.4 |
| 20260505212011 | 90 | 321 | 1.0 | 5.0 | 0.00 | 0.00 | 0.00 | 43 | 1004.3 |
| 20260505211530 | 90 | 178 | 2.0 | 6.0 | 0.00 | 0.00 | 0.00 | 44 | 1004.4 |